EW0791 Weather Reports


time (UTC)temp
C
wind
direction
speed
KPH
gust
KPH
rain 1hr
cm
rain 24hr
cm
rain mn
cm
humidity
%
barometer
mb
20260507050352 11 270 1.6 4.8 0.03 0.58 0.03 88 1008.1
20260507044822 11 272 0.0 6.4 0.03 0.58 0.03 89 1007.7
20260507043338 12 279 4.8 11.3 0.08 0.58 0.03 90 1007.7
20260507041828 12 240 1.6 6.4 0.05 0.56 0.03 92 1007.7
20260507040326 13 274 1.6 4.8 0.05 0.56 0.00 92 1007.8
20260507034822 13 276 3.2 6.4 0.05 0.56 0.56 89 1007.6
20260507033323 14 82 1.6 8.0 0.00 0.51 0.51 91 1007.1
20260507031847 14 347 3.2 14.5 0.00 0.51 0.51 93 1007.0
20260507030322 15 328 1.6 6.4 0.00 0.51 0.51 96 1006.5
20260507024839 15 293 1.6 4.8 0.00 0.51 0.51 96 1006.8
20260507023328 15 239 1.6 9.7 0.00 0.51 0.51 96 1006.6
20260507021823 15 236 3.2 4.8 0.00 0.51 0.51 95 1006.6
20260507020327 15 156 0.0 6.4 0.00 0.51 0.51 95 1006.1
20260507014823 15 207 1.6 8.0 0.00 0.51 0.51 95 1006.3
20260507013355 15 254 3.2 8.0 0.00 0.51 0.51 95 1006.5
20260507011848 15 209 4.8 8.0 0.00 0.51 0.51 95 1006.5
20260507010340 15 155 3.2 9.7 0.00 0.51 0.51 95 1006.4
20260507004827 15 160 3.2 11.3 0.00 0.51 0.51 95 1006.4
20260507003325 15 214 4.8 11.3 0.00 0.51 0.51 95 1006.2
20260507001830 15 181 3.2 9.7 0.00 0.51 0.51 95 1006.1
20260507000325 15 174 6.4 14.5 0.03 0.51 0.51 95 1006.2
20260506234832 15 205 4.8 12.9 0.08 0.51 0.51 95 1006.2
20260506233325 15 157 3.2 9.7 0.13 0.51 0.51 95 1005.9
20260506231829 15 216 4.8 11.3 0.18 0.51 0.51 95 1006.0
20260506230357 15 219 3.2 11.3 0.18 0.48 0.48 95 1006.2
20260506224823 15 189 4.8 11.3 0.15 0.43 0.43 94 1006.3
20260506223329 15 146 3.2 12.9 0.15 0.38 0.38 94 1006.3
20260506221823 15 196 4.8 17.7 0.10 0.33 0.33 93 1006.3
20260506220328 15 191 4.8 16.1 0.08 0.30 0.30 93 1006.4
20260506214823 16 149 6.4 14.5 0.05 0.28 0.28 92 1006.5
20260506213317 16 69 6.4 14.5 0.03 0.23 0.23 92 1006.4
20260506211854 16 114 8.0 16.1 0.05 0.23 0.23 92 1006.6
20260506210331 16 188 4.8 19.3 0.10 0.23 0.23 92 1006.8
20260506204823 16 179 8.0 20.9 0.10 0.23 0.23 91 1007.0
20260506203329 16 182 8.0 19.3 0.05 0.18 0.18 91 1007.1
20260506201823 16 146 6.4 12.9 0.05 0.18 0.18 90 1007.1
20260506200346 17 216 4.8 14.5 0.03 0.13 0.13 88 1007.0
20260506194829 17 232 4.8 14.5 0.05 0.13 0.13 88 1007.0
20260506193326 17 207 3.2 16.1 0.10 0.13 0.13 88 1007.0
20260506191822 17 204 3.2 14.5 0.13 0.13 0.13 87 1007.1
20260506190329 17 233 1.6 6.4 0.10 0.10 0.10 88 1007.0
20260506184824 18 188 3.2 14.5 0.08 0.08 0.08 85 1007.3
20260506183329 18 245 1.6 9.7 0.03 0.03 0.03 81 1007.3
20260506181822 20 13 4.8 22.5 0.00 0.00 0.00 71 1007.5
20260506180329 21 136 8.0 35.4 0.00 0.00 0.00 66 1007.5
20260506174824 22 216 11.3 29.0 0.00 0.00 0.00 61 1007.5
20260506173327 22 209 19.3 35.4 0.00 0.00 0.00 59 1007.5
20260506171822 22 198 9.7 20.9 0.00 0.00 0.00 58 1007.2
20260506170336 23 195 11.3 30.6 0.00 0.00 0.00 59 1007.3
20260506164845 22 239 11.3 27.4 0.00 0.00 0.00 60 1007.7
20260506163319 22 255 12.9 25.7 0.00 0.00 0.00 61 1007.8
20260506161824 21 225 9.7 24.1 0.00 0.00 0.00 63 1008.0
20260506160335 21 181 6.4 32.2 0.00 0.00 0.00 65 1008.3
20260506154844 21 203 4.8 19.3 0.00 0.00 0.00 66 1008.7
20260506153327 21 215 4.8 22.5 0.00 0.00 0.00 67 1008.8
20260506151841 21 181 8.0 19.3 0.00 0.00 0.00 67 1009.1
20260506150352 21 200 12.9 24.1 0.00 0.00 0.00 67 1009.2
20260506144846 20 224 8.0 24.1 0.00 0.00 0.00 68 1009.4
20260506143329 20 208 8.0 22.5 0.00 0.00 0.00 68 1009.2
20260506141824 20 204 8.0 20.9 0.00 0.00 0.00 70 1009.2
20260506140326 20 37 11.3 25.7 0.00 0.00 0.00 71 1008.9
20260506134823 20 217 6.4 19.3 0.00 0.00 0.00 73 1009.1
20260506133318 19 170 8.0 19.3 0.00 0.00 0.00 74 1009.4
20260506131833 18 177 6.4 17.7 0.00 0.00 0.00 75 1009.9
20260506130319 18 187 8.0 22.5 0.00 0.00 0.00 75 1009.9
20260506124826 18 112 9.7 19.3 0.00 0.00 0.00 76 1009.9
20260506123322 18 251 6.4 20.9 0.00 0.00 0.00 76 1009.8
20260506121816 17 192 4.8 12.9 0.00 0.00 0.00 78 1009.7
20260506120328 17 209 6.4 17.7 0.00 0.00 0.00 78 1009.9
20260506114820 17 229 6.4 19.3 0.00 0.00 0.00 79 1010.1
20260506113322 16 190 6.4 17.7 0.00 0.00 0.00 79 1010.3
20260506111827 16 93 6.4 16.1 0.00 0.00 0.00 80 1010.4
20260506110329 16 185 3.2 14.5 0.00 0.00 0.00 80 1010.2
20260506104824 16 198 4.8 9.7 0.00 0.00 0.00 81 1010.3
20260506103329 16 219 4.8 12.9 0.00 0.00 0.00 81 1010.3
20260506101824 16 141 3.2 14.5 0.00 0.00 0.00 80 1010.0
20260506100319 16 162 6.4 14.5 0.00 0.00 0.00 80 1010.1
20260506094834 16 236 6.4 16.1 0.00 0.00 0.00 79 1010.0
20260506093324 16 214 6.4 14.5 0.00 0.00 0.00 79 1010.0
20260506091831 16 129 4.8 14.5 0.00 0.00 0.00 79 1010.1
20260506090345 16 212 6.4 17.7 0.00 0.00 0.00 78 1010.1
20260506084852 16 236 6.4 16.1 0.00 0.00 0.00 77 1010.0
20260506083327 16 205 9.7 16.1 0.00 0.00 0.00 77 1010.1
20260506081822 16 101 6.4 19.3 0.00 0.00 0.00 76 1010.1
20260506080318 17 216 8.0 16.1 0.00 0.00 0.00 75 1010.1
20260506073321 17 201 8.0 14.5 0.00 0.00 0.00 74 1009.9
20260506071817 17 264 6.4 20.9 0.00 0.00 0.00 73 1009.9
20260506070327 17 129 6.4 16.1 0.00 0.00 0.00 72 1009.7
20260506061820 18 205 8.0 20.9 0.00 0.00 0.00 68 1009.4
20260506060315 18 186 4.8 16.1 0.00 0.00 0.00 67 1009.4